YO6IKB-10 Weather Reports


Display with metric or nautical units.
time (UTC)temp
F
wind
direction
speed
MPH
gust
MPH
rain 1hr
in
rain 24hr
in
rain mn
in
humidity
%
barometer
mb
20260503215036 49 292 0.0 1.0 0.00 0.00 0.00 54 1014.8
20260503214535 49 292 0.0 1.0 0.00 0.00 0.00 53 1014.8
20260503214035 49 292 0.0 1.0 0.00 0.00 0.00 53 1015.0
20260503213535 49 292 0.0 2.0 0.00 0.00 0.00 53 1015.1
20260503213034 49 292 0.0 1.0 0.00 0.00 0.00 53 1015.0
20260503212534 49 292 0.0 4.0 0.00 0.00 0.00 52 1014.9
20260503212034 49 292 2.0 2.0 0.00 0.00 0.00 52 1014.9
20260503211534 49 292 0.0 0.0 0.00 0.00 0.00 52 1014.9
20260503211033 49 292 0.0 0.0 0.00 0.00 0.00 52 1014.9
20260503210533 50 292 0.0 2.0 0.00 0.00 0.00 52 1014.9
20260503210033 50 292 1.0 1.0 0.00 0.00 0.00 52 1014.9
20260503205533 50 292 1.0 2.0 0.00 0.00 0.00 51 1014.9
20260503205032 50 292 0.0 2.0 0.00 0.00 0.00 51 1014.9
20260503204532 50 292 1.0 2.0 0.00 0.00 0.00 51 1015.0
20260503204032 50 292 0.0 1.0 0.00 0.00 0.00 51 1015.0
20260503203531 50 292 0.0 1.0 0.00 0.00 0.00 50 1015.1
20260503203031 50 292 0.0 2.0 0.00 0.00 0.00 50 1015.1
20260503202531 51 292 0.0 3.0 0.00 0.00 0.00 50 1015.1
20260503202030 51 292 2.0 3.0 0.00 0.00 0.00 50 1015.0
20260503201530 51 292 2.0 2.0 0.00 0.00 0.00 50 1015.0
20260503201030 51 292 0.0 1.0 0.00 0.00 0.00 50 1015.1
20260503200530 51 292 0.0 0.0 0.00 0.00 0.00 49 1015.1
20260503200029 51 292 0.0 2.0 0.00 0.00 0.00 49 1015.1
20260503195529 51 292 1.0 2.0 0.00 0.00 0.00 49 1015.0
20260503195029 51 292 1.0 4.0 0.00 0.00 0.00 48 1015.1
20260503194528 51 292 2.0 4.0 0.00 0.00 0.00 48 1015.0
20260503194028 51 292 0.0 3.0 0.00 0.00 0.00 48 1015.1
20260503193528 51 292 2.0 2.0 0.00 0.00 0.00 48 1015.0
20260503193027 51 247 0.0 5.0 0.00 0.00 0.00 48 1014.9
20260503192527 51 292 0.0 2.0 0.00 0.00 0.00 48 1014.9
20260503192027 51 292 0.0 2.0 0.00 0.00 0.00 47 1014.9
20260503191527 52 225 1.0 2.0 0.00 0.00 0.00 47 1014.8
20260503191026 52 225 0.0 1.0 0.00 0.00 0.00 47 1014.8
20260503190526 52 225 0.0 1.0 0.00 0.00 0.00 47 1014.9
20260503190026 52 225 0.0 2.0 0.00 0.00 0.00 46 1014.7
20260503185525 52 225 0.0 2.0 0.00 0.00 0.00 45 1014.7
20260503185026 53 225 0.0 2.0 0.00 0.00 0.00 45 1014.7
20260503184525 53 225 0.0 4.0 0.00 0.00 0.00 45 1014.6
20260503184025 53 225 2.0 2.0 0.00 0.00 0.00 45 1014.6
20260503183524 54 202 0.0 6.0 0.00 0.00 0.00 45 1014.7
20260503183024 54 225 0.0 4.0 0.00 0.00 0.00 44 1014.7
20260503182524 54 225 3.0 7.0 0.00 0.00 0.00 44 1014.6
20260503182023 54 225 2.0 5.0 0.00 0.00 0.00 44 1014.5
20260503181523 54 247 3.0 3.0 0.00 0.00 0.00 45 1014.5
20260503181023 55 247 2.0 4.0 0.00 0.00 0.00 44 1014.5
20260503180523 55 225 2.0 3.0 0.00 0.00 0.00 44 1014.5
20260503180022 55 225 0.0 2.0 0.00 0.00 0.00 44 1014.5
20260503175522 55 225 2.0 4.0 0.00 0.00 0.00 44 1014.6
20260503175022 55 247 1.0 4.0 0.00 0.00 0.00 43 1014.5
20260503174521 56 247 1.0 5.0 0.00 0.00 0.00 43 1014.5
20260503174021 56 247 1.0 4.0 0.00 0.00 0.00 43 1014.4
20260503173521 56 247 2.0 6.0 0.00 0.00 0.00 42 1014.5
20260503173020 57 292 1.0 4.0 0.00 0.00 0.00 42 1014.5
20260503172520 57 292 2.0 6.0 0.00 0.00 0.00 42 1014.4
20260503172020 57 292 1.0 6.0 0.00 0.00 0.00 42 1014.4
20260503171520 58 247 0.0 5.0 0.00 0.00 0.00 42 1014.4
20260503171019 58 292 1.0 6.0 0.00 0.00 0.00 42 1014.4
20260503170519 58 292 1.0 4.0 0.00 0.00 0.00 43 1014.5
20260503151012 69 315 4.0 5.0 0.00 0.00 0.00 35 1014.9
20260503150512 68 292 2.0 4.0 0.00 0.00 0.00 36 1014.9
20260503131005 58 22 10.0 10.0 0.00 0.00 0.00 38 1016.3
20260503130505 58 112 0.0 7.0 0.00 0.00 0.00 37 1016.3
20260503110458 54 0 2.0 6.0 0.00 0.00 0.00 41 1017.6
20260503090451 56 315 0.0 2.0 0.00 0.00 0.00 48 1018.7
20260503081448 53 0 1.0 4.0 0.00 0.00 0.00 50 1018.9
20260503080948 54 45 1.0 4.0 0.00 0.00 0.00 50 1018.9
20260503080447 55 337 0.0 3.0 0.00 0.00 0.00 57 1019.0
20260503072445 52 0 0.0 2.0 0.00 0.00 0.00 62 1019.0
20260503071945 53 45 0.0 2.0 0.00 0.00 0.00 62 1018.9
20260503071444 53 292 0.0 2.0 0.00 0.00 0.00 67 1018.9
20260503070944 51 315 2.0 2.0 0.00 0.00 0.00 65 1018.9
20260503070444 51 22 0.0 2.0 0.00 0.00 0.00 64 1018.9
20260503054939 46 22 0.0 0.0 0.00 0.00 0.00 72 1019.0
20260503054439 45 0 0.0 1.0 0.00 0.00 0.00 74 1018.9
20260503053939 45 0 0.0 1.0 0.00 0.00 0.00 75 1019.0
20260503053439 44 0 0.0 0.0 0.00 0.00 0.00 77 1018.8
20260503052938 43 0 0.0 0.0 0.00 0.00 0.00 77 1018.9
20260503052438 42 0 0.0 0.0 0.00 0.00 0.00 78 1018.9
20260503051938 42 0 0.0 0.0 0.00 0.00 0.00 78 1018.9
20260503051437 42 0 0.0 1.0 0.00 0.00 0.00 79 1018.8
20260503050937 42 292 0.0 0.0 0.00 0.00 0.00 79 1018.8
20260503050437 42 292 0.0 0.0 0.00 0.00 0.00 80 1018.8
20260503045936 42 292 0.0 0.0 0.00 0.00 0.00 81 1018.8
20260503045436 41 292 0.0 0.0 0.00 0.00 0.00 81 1018.8
20260503044936 41 292 0.0 0.0 0.00 0.00 0.00 82 1018.8
20260503044436 41 292 0.0 0.0 0.00 0.00 0.00 82 1018.8
20260503043935 41 292 0.0 0.0 0.00 0.00 0.00 82 1018.7
20260503043435 41 292 0.0 0.0 0.00 0.00 0.00 83 1018.7
20260503042935 41 292 0.0 0.0 0.00 0.00 0.00 83 1018.7
20260503042434 40 292 0.0 0.0 0.00 0.00 0.00 84 1018.7
20260503041934 39 292 0.0 0.0 0.00 0.00 0.00 85 1018.6
20260503041434 39 292 0.0 0.0 0.00 0.00 0.00 85 1018.5
20260503040934 39 292 0.0 0.0 0.00 0.00 0.00 85 1018.5
20260503040433 39 292 0.0 0.0 0.00 0.00 0.00 86 1018.4
20260503035933 38 292 0.0 0.0 0.00 0.00 0.00 86 1018.4
20260503035433 37 292 0.0 0.0 0.00 0.00 0.00 87 1018.4
20260503034932 36 292 0.0 0.0 0.00 0.00 0.00 87 1018.4
20260503034432 35 292 0.0 0.0 0.00 0.00 0.00 87 1018.3
20260503033932 34 292 0.0 0.0 0.00 0.00 0.00 87 1018.3
20260503033432 33 292 0.0 0.0 0.00 0.00 0.00 87 1018.2
20260503032931 32 292 0.0 0.0 0.00 0.00 0.00 87 1018.2
20260503032431 32 292 0.0 0.0 0.00 0.00 0.00 87 1018.2
20260503031931 32 292 0.0 0.0 0.00 0.00 0.00 87 1018.2
20260503031430 32 292 0.0 0.0 0.00 0.00 0.00 87 1018.1
20260503030930 32 292 0.0 0.0 0.00 0.00 0.00 87 1018.1
20260503030430 32 292 0.0 0.0 0.00 0.00 0.00 87 1018.1
20260503025929 32 292 0.0 0.0 0.00 0.00 0.00 87 1018.0
20260503025429 32 292 0.0 0.0 0.00 0.00 0.00 87 1018.0
20260503024929 32 292 0.0 0.0 0.00 0.00 0.00 87 1018.0
20260503024429 32 292 0.0 0.0 0.00 0.00 0.00 87 1018.0
20260503023928 32 292 0.0 0.0 0.00 0.00 0.00 87 1018.0
20260503023428 32 292 0.0 0.0 0.00 0.00 0.00 87 1018.0
20260503022928 32 292 0.0 0.0 0.00 0.00 0.00 87 1017.9
20260503022427 32 292 0.0 0.0 0.00 0.00 0.00 87 1018.0
20260503021927 32 292 0.0 0.0 0.00 0.00 0.00 87 1017.9
20260503021427 32 292 0.0 0.0 0.00 0.00 0.00 87 1017.9
20260503020927 32 292 0.0 0.0 0.00 0.00 0.00 86 1017.9
20260503020426 33 292 0.0 0.0 0.00 0.00 0.00 86 1017.9
20260503015926 33 292 0.0 0.0 0.00 0.00 0.00 86 1017.9
20260503015426 33 292 0.0 0.0 0.00 0.00 0.00 86 1017.9
20260503014925 33 292 0.0 0.0 0.00 0.00 0.00 86 1017.9
20260503014425 33 292 0.0 0.0 0.00 0.00 0.00 86 1017.9
20260503013925 33 292 0.0 0.0 0.00 0.00 0.00 86 1017.9
20260503013424 33 292 0.0 0.0 0.00 0.00 0.00 86 1017.9
20260503012924 33 292 0.0 0.0 0.00 0.00 0.00 86 1017.9
20260503012424 34 292 0.0 0.0 0.00 0.00 0.00 86 1017.9
20260503011924 34 292 0.0 0.0 0.00 0.00 0.00 86 1017.9
20260503011423 34 292 0.0 0.0 0.00 0.00 0.00 86 1018.0
20260503010923 34 292 0.0 0.0 0.00 0.00 0.00 86 1018.0
20260503010423 34 292 0.0 0.0 0.00 0.00 0.00 86 1017.9
20260503005922 34 292 0.0 0.0 0.00 0.00 0.00 85 1018.0
20260503005422 34 292 0.0 0.0 0.00 0.00 0.00 85 1017.9
20260503004922 34 292 0.0 0.0 0.00 0.00 0.00 85 1017.9
20260503004422 34 292 0.0 0.0 0.00 0.00 0.00 85 1017.9
20260503003921 34 292 0.0 0.0 0.00 0.00 0.00 85 1018.0
20260503003421 35 292 0.0 0.0 0.00 0.00 0.00 85 1018.0
20260503002921 35 292 0.0 0.0 0.00 0.00 0.00 85 1017.9
20260503002420 35 292 0.0 0.0 0.00 0.00 0.00 85 1018.0
20260503001920 35 292 0.0 0.0 0.00 0.00 0.00 85 1018.0
20260503001420 35 292 0.0 2.0 0.00 0.00 0.00 85 1018.0
20260503000919 35 292 0.0 0.0 0.00 0.00 0.00 85 1018.0
20260503000419 35 292 0.0 0.0 0.00 0.00 0.00 85 1018.1
20260502235919 35 292 0.0 0.0 0.00 0.00 0.00 85 1018.1
20260502235419 35 292 0.0 1.0 0.00 0.00 0.00 85 1018.1
20260502234918 35 292 0.0 0.0 0.00 0.00 0.00 84 1018.0
20260502234418 35 292 0.0 1.0 0.00 0.00 0.00 84 1018.1
20260502233918 35 292 0.0 2.0 0.00 0.00 0.00 83 1018.1
20260502233417 35 292 0.0 2.0 0.00 0.00 0.00 83 1018.1
20260502232917 36 292 0.0 2.0 0.00 0.00 0.00 83 1018.1
20260502232417 36 292 0.0 0.0 0.00 0.00 0.00 82 1018.0
20260502231917 36 292 0.0 2.0 0.00 0.00 0.00 82 1017.9
20260502231416 36 225 0.0 0.0 0.00 0.00 0.00 82 1017.9
20260502230916 36 225 0.0 0.0 0.00 0.00 0.00 82 1017.9
20260502230416 37 225 0.0 0.0 0.00 0.00 0.00 82 1017.9
20260502225915 37 225 0.0 0.0 0.00 0.00 0.00 82 1018.1
20260502225415 37 225 0.0 0.0 0.00 0.00 0.00 82 1018.1
20260502224915 37 225 0.0 0.0 0.00 0.00 0.00 82 1018.2
20260502224415 37 225 0.0 0.0 0.00 0.00 0.00 82 1018.3
20260502223914 37 225 0.0 0.0 0.00 0.00 0.00 82 1018.3
20260502223414 37 225 0.0 0.0 0.00 0.00 0.00 82 1018.3
20260502222914 37 225 0.0 0.0 0.00 0.00 0.00 82 1018.4
20260502222413 38 225 0.0 0.0 0.00 0.00 0.00 82 1018.3
20260502221913 38 292 0.0 0.0 0.00 0.00 0.00 83 1018.4
20260502221413 38 315 0.0 0.0 0.00 0.00 0.00 83 1018.4
20260502220912 38 292 0.0 0.0 0.00 0.00 0.00 83 1018.4
20260502220412 38 292 0.0 0.0 0.00 0.00 0.00 84 1018.4
20260502215912 38 292 0.0 0.0 0.00 0.00 0.00 83 1018.4
20260502215412 38 292 0.0 0.0 0.00 0.00 0.00 83 1018.5